Year,Month,Day,Hour,Minute,Value (Times are PST for insolation in W/m^2)
2010,05,17,00,00,0.00
2010,05,17,00,01,0.00
2010,05,17,00,02,0.00
2010,05,17,00,03,0.00
2010,05,17,00,04,0.00
2010,05,17,00,05,0.00
2010,05,17,00,06,0.00
2010,05,17,00,07,0.00
2010,05,17,00,08,0.00
2010,05,17,00,09,0.00
2010,05,17,00,10,0.00
2010,05,17,00,11,0.00
2010,05,17,00,12,0.00
2010,05,17,00,13,0.00
2010,05,17,00,14,0.00
2010,05,17,00,15,0.00
2010,05,17,00,16,0.00
2010,05,17,00,17,0.00
2010,05,17,00,18,0.00
2010,05,17,00,19,0.00
2010,05,17,00,20,0.00
2010,05,17,00,21,0.00
2010,05,17,00,22,0.00
2010,05,17,00,23,0.00
2010,05,17,00,24,0.00
2010,05,17,00,25,0.00
2010,05,17,00,26,0.00
2010,05,17,00,27,0.00
2010,05,17,00,28,0.00
2010,05,17,00,29,0.00
2010,05,17,00,30,0.00
2010,05,17,00,31,0.00
2010,05,17,00,32,0.00
2010,05,17,00,33,0.00
2010,05,17,00,34,0.00
2010,05,17,00,35,0.00
2010,05,17,00,36,0.00
2010,05,17,00,37,0.00
2010,05,17,00,38,0.00
2010,05,17,00,39,0.00
2010,05,17,00,40,0.00
2010,05,17,00,41,0.00
2010,05,17,00,42,0.00
2010,05,17,00,43,0.00
2010,05,17,00,44,0.00
2010,05,17,00,45,0.00
2010,05,17,00,46,0.00
2010,05,17,00,47,0.00
2010,05,17,00,48,0.00
2010,05,17,00,49,0.00
2010,05,17,00,50,0.00
2010,05,17,00,51,0.00
2010,05,17,00,52,0.00
2010,05,17,00,53,0.00
2010,05,17,00,54,0.00
2010,05,17,00,55,0.00
2010,05,17,00,56,0.00
2010,05,17,00,57,0.00
2010,05,17,00,58,0.00
2010,05,17,00,59,0.00
2010,05,17,01,00,0.00
2010,05,17,01,01,0.00
2010,05,17,01,02,0.00
2010,05,17,01,03,0.00
2010,05,17,01,04,0.00
2010,05,17,01,05,0.00
2010,05,17,01,06,0.00
2010,05,17,01,07,0.00
2010,05,17,01,08,0.00
2010,05,17,01,09,0.00
2010,05,17,01,10,0.00
2010,05,17,01,11,0.00
2010,05,17,01,12,0.00
2010,05,17,01,13,0.00
2010,05,17,01,14,0.00
2010,05,17,01,15,0.00
2010,05,17,01,16,0.00
2010,05,17,01,17,0.00
2010,05,17,01,18,0.00
2010,05,17,01,19,0.00
2010,05,17,01,20,0.00
2010,05,17,01,21,0.00
2010,05,17,01,22,0.00
2010,05,17,01,23,0.00
2010,05,17,01,24,0.00
2010,05,17,01,25,0.00
2010,05,17,01,26,0.00
2010,05,17,01,27,0.00
2010,05,17,01,28,0.00
2010,05,17,01,29,0.00
2010,05,17,01,30,0.00
2010,05,17,01,31,0.00
2010,05,17,01,32,0.00
2010,05,17,01,33,0.00
2010,05,17,01,34,0.00
2010,05,17,01,35,0.00
2010,05,17,01,36,0.00
2010,05,17,01,37,0.00
2010,05,17,01,38,0.00
2010,05,17,01,39,0.00
2010,05,17,01,40,0.00
2010,05,17,01,41,0.00
2010,05,17,01,42,0.00
2010,05,17,01,43,0.00
2010,05,17,01,44,0.00
2010,05,17,01,45,0.00
2010,05,17,01,46,0.00
2010,05,17,01,47,0.00
2010,05,17,01,48,0.00
2010,05,17,01,49,0.00
2010,05,17,01,50,0.00
2010,05,17,01,51,0.00
2010,05,17,01,52,0.00
2010,05,17,01,53,0.00
2010,05,17,01,54,0.00
2010,05,17,01,55,0.00
2010,05,17,01,56,0.00
2010,05,17,01,57,0.00
2010,05,17,01,58,0.00
2010,05,17,01,59,0.00
2010,05,17,02,00,0.00
2010,05,17,02,01,0.00
2010,05,17,02,02,0.00
2010,05,17,02,03,0.00
2010,05,17,02,04,0.00
2010,05,17,02,05,0.00
2010,05,17,02,06,0.00
2010,05,17,02,07,0.00
2010,05,17,02,08,0.00
2010,05,17,02,09,0.00
2010,05,17,02,10,0.00
2010,05,17,02,11,0.00
2010,05,17,02,12,0.00
2010,05,17,02,13,0.00
2010,05,17,02,14,0.00
2010,05,17,02,15,0.00
2010,05,17,02,16,0.00
2010,05,17,02,17,0.00
2010,05,17,02,18,0.00
2010,05,17,02,19,0.00
2010,05,17,02,20,0.00
2010,05,17,02,21,0.00
2010,05,17,02,22,0.00
2010,05,17,02,23,0.00
2010,05,17,02,24,0.00
2010,05,17,02,25,0.00
2010,05,17,02,26,0.00
2010,05,17,02,27,0.00
2010,05,17,02,28,0.00
2010,05,17,02,29,0.00
2010,05,17,02,30,0.00
2010,05,17,02,31,0.00
2010,05,17,02,32,0.00
2010,05,17,02,33,0.00
2010,05,17,02,34,0.00
2010,05,17,02,35,0.00
2010,05,17,02,36,0.00
2010,05,17,02,37,0.00
2010,05,17,02,38,0.00
2010,05,17,02,39,0.00
2010,05,17,02,40,0.00
2010,05,17,02,41,0.00
2010,05,17,02,42,0.00
2010,05,17,02,43,0.00
2010,05,17,02,44,0.00
2010,05,17,02,45,0.00
2010,05,17,02,46,0.00
2010,05,17,02,47,0.00
2010,05,17,02,48,0.00
2010,05,17,02,49,0.00
2010,05,17,02,50,0.00
2010,05,17,02,51,0.00
2010,05,17,02,52,0.00
2010,05,17,02,53,0.00
2010,05,17,02,54,0.00
2010,05,17,02,55,0.00
2010,05,17,02,56,0.00
2010,05,17,02,57,0.00
2010,05,17,02,58,0.00
2010,05,17,02,59,0.00
2010,05,17,03,00,0.00
2010,05,17,03,01,0.00
2010,05,17,03,02,0.00
2010,05,17,03,03,0.00
2010,05,17,03,04,0.00
2010,05,17,03,05,0.00
2010,05,17,03,06,0.00
2010,05,17,03,07,0.00
2010,05,17,03,08,0.00
2010,05,17,03,09,0.00
2010,05,17,03,10,0.00
2010,05,17,03,11,0.00
2010,05,17,03,12,0.00
2010,05,17,03,13,0.00
2010,05,17,03,14,0.00
2010,05,17,03,15,0.00
2010,05,17,03,16,0.00
2010,05,17,03,17,0.00
2010,05,17,03,18,0.00
2010,05,17,03,19,0.00
2010,05,17,03,20,0.00
2010,05,17,03,21,0.00
2010,05,17,03,22,0.00
2010,05,17,03,23,0.00
2010,05,17,03,24,0.00
2010,05,17,03,25,0.00
2010,05,17,03,26,0.00
2010,05,17,03,27,0.00
2010,05,17,03,28,0.00
2010,05,17,03,29,0.00
2010,05,17,03,30,0.00
2010,05,17,03,31,0.00
2010,05,17,03,32,0.00
2010,05,17,03,33,0.00
2010,05,17,03,34,0.00
2010,05,17,03,35,0.00
2010,05,17,03,36,0.00
2010,05,17,03,37,0.00
2010,05,17,03,38,0.00
2010,05,17,03,39,0.00
2010,05,17,03,40,0.00
2010,05,17,03,41,0.00
2010,05,17,03,42,0.00
2010,05,17,03,43,0.00
2010,05,17,03,44,0.00
2010,05,17,03,45,0.00
2010,05,17,03,46,0.00
2010,05,17,03,47,0.00
2010,05,17,03,48,0.00
2010,05,17,03,49,0.00
2010,05,17,03,50,0.00
2010,05,17,03,51,0.00
2010,05,17,03,52,0.00
2010,05,17,03,53,0.00
2010,05,17,03,54,0.00
2010,05,17,03,55,0.00
2010,05,17,03,56,0.00
2010,05,17,03,57,0.00
2010,05,17,03,58,0.00
2010,05,17,03,59,0.00
2010,05,17,04,00,0.00
2010,05,17,04,01,0.00
2010,05,17,04,02,0.00
2010,05,17,04,03,0.00
2010,05,17,04,04,0.00
2010,05,17,04,05,0.00
2010,05,17,04,06,0.00
2010,05,17,04,07,0.00
2010,05,17,04,08,0.00
2010,05,17,04,09,0.00
2010,05,17,04,10,0.00
2010,05,17,04,11,0.00
2010,05,17,04,12,0.00
2010,05,17,04,13,0.00
2010,05,17,04,14,0.00
2010,05,17,04,15,0.00
2010,05,17,04,16,0.00
2010,05,17,04,17,0.00
2010,05,17,04,18,0.00
2010,05,17,04,19,0.00
2010,05,17,04,20,0.00
2010,05,17,04,21,0.00
2010,05,17,04,22,0.00
2010,05,17,04,23,0.00
2010,05,17,04,24,0.00
2010,05,17,04,25,0.00
2010,05,17,04,26,0.00
2010,05,17,04,27,0.00
2010,05,17,04,28,0.00
2010,05,17,04,29,0.00
2010,05,17,04,30,0.00
2010,05,17,04,31,0.00
2010,05,17,04,32,0.00
2010,05,17,04,33,0.00
2010,05,17,04,34,0.00
2010,05,17,04,35,0.00
2010,05,17,04,36,0.00
2010,05,17,04,37,0.00
2010,05,17,04,38,0.00
2010,05,17,04,39,0.00
2010,05,17,04,40,0.00
2010,05,17,04,41,0.00
2010,05,17,04,42,0.00
2010,05,17,04,43,0.00
2010,05,17,04,44,0.00
2010,05,17,04,45,0.00
2010,05,17,04,46,0.00
2010,05,17,04,47,0.00
2010,05,17,04,48,0.00
2010,05,17,04,49,0.00
2010,05,17,04,50,0.00
2010,05,17,04,51,0.00
2010,05,17,04,52,0.00
2010,05,17,04,53,0.00
2010,05,17,04,54,0.00
2010,05,17,04,55,0.00
2010,05,17,04,56,0.00
2010,05,17,04,57,0.00
2010,05,17,04,58,0.00
2010,05,17,04,59,0.00
2010,05,17,05,00,0.00
2010,05,17,05,01,0.00
2010,05,17,05,02,0.00
2010,05,17,05,03,0.00
2010,05,17,05,04,0.00
2010,05,17,05,05,0.00
2010,05,17,05,06,0.00
2010,05,17,05,07,0.00
2010,05,17,05,08,0.00
2010,05,17,05,09,0.00
2010,05,17,05,10,0.00
2010,05,17,05,11,0.00
2010,05,17,05,12,0.00
2010,05,17,05,13,0.00
2010,05,17,05,14,0.00
2010,05,17,05,15,0.00
2010,05,17,05,16,0.00
2010,05,17,05,17,0.00
2010,05,17,05,18,0.00
2010,05,17,05,19,0.00
2010,05,17,05,20,0.00
2010,05,17,05,21,0.00
2010,05,17,05,22,0.00
2010,05,17,05,23,0.00
2010,05,17,05,24,0.00
2010,05,17,05,25,0.00
2010,05,17,05,26,0.00
2010,05,17,05,27,0.00
2010,05,17,05,28,0.00
2010,05,17,05,29,0.00
2010,05,17,05,30,0.00
2010,05,17,05,31,0.00
2010,05,17,05,32,0.00
2010,05,17,05,33,0.00
2010,05,17,05,34,0.00
2010,05,17,05,35,0.00
2010,05,17,05,36,0.00
2010,05,17,05,37,0.00
2010,05,17,05,38,0.00
2010,05,17,05,39,0.00
2010,05,17,05,40,0.00
2010,05,17,05,41,1.30
2010,05,17,05,42,5.00
2010,05,17,05,43,5.00
2010,05,17,05,44,5.00
2010,05,17,05,45,5.00
2010,05,17,05,46,6.90
2010,05,17,05,47,7.00
2010,05,17,05,48,7.00
2010,05,17,05,49,8.20
2010,05,17,05,50,9.00
2010,05,17,05,51,9.00
2010,05,17,05,52,11.00
2010,05,17,05,53,11.00
2010,05,17,05,54,11.40
2010,05,17,05,55,12.00
2010,05,17,05,56,12.00
2010,05,17,05,57,12.00
2010,05,17,05,58,14.00
2010,05,17,05,59,14.00
2010,05,17,06,00,14.00
2010,05,17,06,01,14.00
2010,05,17,06,02,14.00
2010,05,17,06,03,14.00
2010,05,17,06,04,14.40
2010,05,17,06,05,16.00
2010,05,17,06,06,16.00
2010,05,17,06,07,16.00
2010,05,17,06,08,16.00
2010,05,17,06,09,16.10
2010,05,17,06,10,18.00
2010,05,17,06,11,18.40
2010,05,17,06,12,19.00
2010,05,17,06,13,20.30
2010,05,17,06,14,21.00
2010,05,17,06,15,23.10
2010,05,17,06,16,25.20
2010,05,17,06,17,26.00
2010,05,17,06,18,28.00
2010,05,17,06,19,32.10
2010,05,17,06,20,34.70
2010,05,17,06,21,39.10
2010,05,17,06,22,41.10
2010,05,17,06,23,45.20
2010,05,17,06,24,48.10
2010,05,17,06,25,51.70
2010,05,17,06,26,53.80
2010,05,17,06,27,56.20
2010,05,17,06,28,58.60
2010,05,17,06,29,60.00
2010,05,17,06,30,61.10
2010,05,17,06,31,62.00
2010,05,17,06,32,62.90
2010,05,17,06,33,63.00
2010,05,17,06,34,63.50
2010,05,17,06,35,65.90
2010,05,17,06,36,67.00
2010,05,17,06,37,68.50
2010,05,17,06,38,69.00
2010,05,17,06,39,70.40
2010,05,17,06,40,72.00
2010,05,17,06,41,72.00
2010,05,17,06,42,72.00
2010,05,17,06,43,73.60
2010,05,17,06,44,74.10
2010,05,17,06,45,76.00
2010,05,17,06,46,76.40
2010,05,17,06,47,78.00
2010,05,17,06,48,80.30
2010,05,17,06,49,82.60
2010,05,17,06,50,83.00
2010,05,17,06,51,83.60
2010,05,17,06,52,86.70
2010,05,17,06,53,89.10
2010,05,17,06,54,92.10
2010,05,17,06,55,94.60
2010,05,17,06,56,98.10
2010,05,17,06,57,102.80
2010,05,17,06,58,106.50
2010,05,17,06,59,110.00
2010,05,17,07,00,111.00
2010,05,17,07,01,113.40
2010,05,17,07,02,119.10
2010,05,17,07,03,130.90
2010,05,17,07,04,141.10
2010,05,17,07,05,144.00
2010,05,17,07,06,144.00
2010,05,17,07,07,145.70
2010,05,17,07,08,149.70
2010,05,17,07,09,153.60
2010,05,17,07,10,151.40
2010,05,17,07,11,160.10
2010,05,17,07,12,164.40
2010,05,17,07,13,173.10
2010,05,17,07,14,170.40
2010,05,17,07,15,166.40
2010,05,17,07,16,167.80
2010,05,17,07,17,171.00
2010,05,17,07,18,169.50
2010,05,17,07,19,169.00
2010,05,17,07,20,174.00
2010,05,17,07,21,175.30
2010,05,17,07,22,180.40
2010,05,17,07,23,188.20
2010,05,17,07,24,199.50
2010,05,17,07,25,210.40
2010,05,17,07,26,220.90
2010,05,17,07,27,235.90
2010,05,17,07,28,240.00
2010,05,17,07,29,239.50
2010,05,17,07,30,250.00
2010,05,17,07,31,251.10
2010,05,17,07,32,250.40
2010,05,17,07,33,250.40
2010,05,17,07,34,234.50
2010,05,17,07,35,202.00
2010,05,17,07,36,187.00
2010,05,17,07,37,182.20
2010,05,17,07,38,174.00
2010,05,17,07,39,174.70
2010,05,17,07,40,173.50
2010,05,17,07,41,164.80
2010,05,17,07,42,156.40
2010,05,17,07,43,158.70
2010,05,17,07,44,166.50
2010,05,17,07,45,171.00
2010,05,17,07,46,169.90
2010,05,17,07,47,167.60
2010,05,17,07,48,165.30
2010,05,17,07,49,167.90
2010,05,17,07,50,177.30
2010,05,17,07,51,180.10
2010,05,17,07,52,174.40
2010,05,17,07,53,173.10
2010,05,17,07,54,184.70
2010,05,17,07,55,209.60
2010,05,17,07,56,217.80
2010,05,17,07,57,235.30
2010,05,17,07,58,259.60
2010,05,17,07,59,252.60
2010,05,17,08,00,254.10
2010,05,17,08,01,298.50
2010,05,17,08,02,291.30
2010,05,17,08,03,304.10
2010,05,17,08,04,285.60
2010,05,17,08,05,295.70
2010,05,17,08,06,320.00
2010,05,17,08,07,326.00
2010,05,17,08,08,344.00
2010,05,17,08,09,366.00
2010,05,17,08,10,352.60
2010,05,17,08,11,344.20
2010,05,17,08,12,346.00
2010,05,17,08,13,346.00
2010,05,17,08,14,346.00
2010,05,17,08,15,342.20
2010,05,17,08,16,328.20
2010,05,17,08,17,371.00
2010,05,17,08,18,383.00
2010,05,17,08,19,370.80
2010,05,17,08,20,354.80
2010,05,17,08,21,397.20
2010,05,17,08,22,385.20
2010,05,17,08,23,392.30
2010,05,17,08,24,422.10
2010,05,17,08,25,400.50
2010,05,17,08,26,354.40
2010,05,17,08,27,396.80
2010,05,17,08,28,411.10
2010,05,17,08,29,407.70
2010,05,17,08,30,337.70
2010,05,17,08,31,362.00
2010,05,17,08,32,367.30
2010,05,17,08,33,331.00
2010,05,17,08,34,323.30
2010,05,17,08,35,337.20
2010,05,17,08,36,335.50
2010,05,17,08,37,327.40
2010,05,17,08,38,317.70
2010,05,17,08,39,302.40
2010,05,17,08,40,298.20
2010,05,17,08,41,309.30
2010,05,17,08,42,364.00
2010,05,17,08,43,409.40
2010,05,17,08,44,422.90
2010,05,17,08,45,428.40
2010,05,17,08,46,442.20
2010,05,17,08,47,449.70
2010,05,17,08,48,452.40
2010,05,17,08,49,454.00
2010,05,17,08,50,453.00
2010,05,17,08,51,452.00
2010,05,17,08,52,452.00
2010,05,17,08,53,454.80
2010,05,17,08,54,454.60
2010,05,17,08,55,457.00
2010,05,17,08,56,455.90
2010,05,17,08,57,456.40
2010,05,17,08,58,469.80
2010,05,17,08,59,484.20
2010,05,17,09,00,481.50
2010,05,17,09,01,458.70
2010,05,17,09,02,411.60
2010,05,17,09,03,366.10
2010,05,17,09,04,374.80
2010,05,17,09,05,363.40
2010,05,17,09,06,302.20
2010,05,17,09,07,314.10
2010,05,17,09,08,324.30
2010,05,17,09,09,281.00
2010,05,17,09,10,236.40
2010,05,17,09,11,255.50
2010,05,17,09,12,269.20
2010,05,17,09,13,308.50
2010,05,17,09,14,331.20
2010,05,17,09,15,320.00
2010,05,17,09,16,275.60
2010,05,17,09,17,277.90
2010,05,17,09,18,280.70
2010,05,17,09,19,265.00
2010,05,17,09,20,286.40
2010,05,17,09,21,293.00
2010,05,17,09,22,318.60
2010,05,17,09,23,372.00
2010,05,17,09,24,461.80
2010,05,17,09,25,457.80
2010,05,17,09,26,464.70
2010,05,17,09,27,477.10
2010,05,17,09,28,431.50
2010,05,17,09,29,454.00
2010,05,17,09,30,454.00
2010,05,17,09,31,378.00
2010,05,17,09,32,344.80
2010,05,17,09,33,409.80
2010,05,17,09,34,498.50
2010,05,17,09,35,529.00
2010,05,17,09,36,466.40
2010,05,17,09,37,361.50
2010,05,17,09,38,415.30
2010,05,17,09,39,485.40
2010,05,17,09,40,498.40
2010,05,17,09,41,501.00
2010,05,17,09,42,534.20
2010,05,17,09,43,562.90
2010,05,17,09,44,557.70
2010,05,17,09,45,548.80
2010,05,17,09,46,555.90
2010,05,17,09,47,547.30
2010,05,17,09,48,542.90
2010,05,17,09,49,527.10
2010,05,17,09,50,521.10
2010,05,17,09,51,533.80
2010,05,17,09,52,519.60
2010,05,17,09,53,524.40
2010,05,17,09,54,559.00
2010,05,17,09,55,533.20
2010,05,17,09,56,471.50
2010,05,17,09,57,473.10
2010,05,17,09,58,477.90
2010,05,17,09,59,499.70
2010,05,17,10,00,543.30
2010,05,17,10,01,579.10
2010,05,17,10,02,576.20
2010,05,17,10,03,532.80
2010,05,17,10,04,505.90
2010,05,17,10,05,465.20
2010,05,17,10,06,473.00
2010,05,17,10,07,512.20
2010,05,17,10,08,547.20
2010,05,17,10,09,553.40
2010,05,17,10,10,543.00
2010,05,17,10,11,502.10
2010,05,17,10,12,416.40
2010,05,17,10,13,391.40
2010,05,17,10,14,390.90
2010,05,17,10,15,407.20
2010,05,17,10,16,425.40
2010,05,17,10,17,441.40
2010,05,17,10,18,481.80
2010,05,17,10,19,485.60
2010,05,17,10,20,509.50
2010,05,17,10,21,547.00
2010,05,17,10,22,514.20
2010,05,17,10,23,588.70
2010,05,17,10,24,631.10
2010,05,17,10,25,598.20
2010,05,17,10,26,618.00
2010,05,17,10,27,597.50
2010,05,17,10,28,573.20
2010,05,17,10,29,531.50
2010,05,17,10,30,511.00
2010,05,17,10,31,529.80
2010,05,17,10,32,516.40
2010,05,17,10,33,531.90
2010,05,17,10,34,526.80
2010,05,17,10,35,501.40
2010,05,17,10,36,520.20
2010,05,17,10,37,526.80
2010,05,17,10,38,528.70
2010,05,17,10,39,543.30
2010,05,17,10,40,559.20
2010,05,17,10,41,553.60
2010,05,17,10,42,563.00
2010,05,17,10,43,557.00
2010,05,17,10,44,591.10
2010,05,17,10,45,574.60
2010,05,17,10,46,478.70
2010,05,17,10,47,541.00
2010,05,17,10,48,444.40
2010,05,17,10,49,388.00
2010,05,17,10,50,398.60
2010,05,17,10,51,428.20
2010,05,17,10,52,405.00
2010,05,17,10,53,411.40
2010,05,17,10,54,404.00
2010,05,17,10,55,408.70
2010,05,17,10,56,431.30
2010,05,17,10,57,526.00
2010,05,17,10,58,560.30
2010,05,17,10,59,644.80
2010,05,17,11,00,606.20
2010,05,17,11,01,573.00
2010,05,17,11,02,697.80
2010,05,17,11,03,731.50
2010,05,17,11,04,714.00
2010,05,17,11,05,682.30
2010,05,17,11,06,665.20
2010,05,17,11,07,653.70
2010,05,17,11,08,667.50
2010,05,17,11,09,670.20
2010,05,17,11,10,672.60
2010,05,17,11,11,666.90
2010,05,17,11,12,642.60
2010,05,17,11,13,624.00
2010,05,17,11,14,613.70
2010,05,17,11,15,595.50
2010,05,17,11,16,587.60
2010,05,17,11,17,581.50
2010,05,17,11,18,589.90
2010,05,17,11,19,598.30
2010,05,17,11,20,559.30
2010,05,17,11,21,495.80
2010,05,17,11,22,511.40
2010,05,17,11,23,569.30
2010,05,17,11,24,606.60
2010,05,17,11,25,625.70
2010,05,17,11,26,647.60
2010,05,17,11,27,664.90
2010,05,17,11,28,650.70
2010,05,17,11,29,650.20
2010,05,17,11,30,652.00
2010,05,17,11,31,640.40
2010,05,17,11,32,614.80
2010,05,17,11,33,580.60
2010,05,17,11,34,597.50
2010,05,17,11,35,620.40
2010,05,17,11,36,567.60
2010,05,17,11,37,601.10
2010,05,17,11,38,592.40
2010,05,17,11,39,626.00
2010,05,17,11,40,636.00
2010,05,17,11,41,637.40
2010,05,17,11,42,613.30
2010,05,17,11,43,582.40
2010,05,17,11,44,535.00
2010,05,17,11,45,527.40
2010,05,17,11,46,481.50
2010,05,17,11,47,431.70
2010,05,17,11,48,392.60
2010,05,17,11,49,375.90
2010,05,17,11,50,369.90
2010,05,17,11,51,367.80
2010,05,17,11,52,367.80
2010,05,17,11,53,367.00
2010,05,17,11,54,368.70
2010,05,17,11,55,370.80
2010,05,17,11,56,371.90
2010,05,17,11,57,378.30
2010,05,17,11,58,378.90
2010,05,17,11,59,382.50
2010,05,17,12,00,381.30
2010,05,17,12,01,378.80
2010,05,17,12,02,383.60
2010,05,17,12,03,386.40
2010,05,17,12,04,391.50
2010,05,17,12,05,395.50
2010,05,17,12,06,400.10
2010,05,17,12,07,392.30
2010,05,17,12,08,379.20
2010,05,17,12,09,366.70
2010,05,17,12,10,359.00
2010,05,17,12,11,353.30
2010,05,17,12,12,345.50
2010,05,17,12,13,340.40
2010,05,17,12,14,337.40
2010,05,17,12,15,334.10
2010,05,17,12,16,330.10
2010,05,17,12,17,327.40
2010,05,17,12,18,323.20
2010,05,17,12,19,321.20
2010,05,17,12,20,317.00
2010,05,17,12,21,313.90
2010,05,17,12,22,309.60
2010,05,17,12,23,302.90
2010,05,17,12,24,296.50
2010,05,17,12,25,288.50
2010,05,17,12,26,280.50
2010,05,17,12,27,272.10
2010,05,17,12,28,264.10
2010,05,17,12,29,256.10
2010,05,17,12,30,247.30
2010,05,17,12,31,239.80
2010,05,17,12,32,233.60
2010,05,17,12,33,228.30
2010,05,17,12,34,224.30
2010,05,17,12,35,220.50
2010,05,17,12,36,217.50
2010,05,17,12,37,214.00
2010,05,17,12,38,214.80
2010,05,17,12,39,217.20
2010,05,17,12,40,221.70
2010,05,17,12,41,228.40
2010,05,17,12,42,237.10
2010,05,17,12,43,245.50
2010,05,17,12,44,255.40
2010,05,17,12,45,267.50
2010,05,17,12,46,283.20
2010,05,17,12,47,296.60
2010,05,17,12,48,310.80
2010,05,17,12,49,320.20
2010,05,17,12,50,327.00
2010,05,17,12,51,332.20
2010,05,17,12,52,334.00
2010,05,17,12,53,332.00
2010,05,17,12,54,329.50
2010,05,17,12,55,325.50
2010,05,17,12,56,317.50
2010,05,17,12,57,307.30
2010,05,17,12,58,296.10
2010,05,17,12,59,281.20
2010,05,17,13,00,268.20
2010,05,17,13,01,256.70
2010,05,17,13,02,247.30
2010,05,17,13,03,239.20
2010,05,17,13,04,231.10
2010,05,17,13,05,222.80
2010,05,17,13,06,216.80
2010,05,17,13,07,211.50
2010,05,17,13,08,207.40
2010,05,17,13,09,203.30
2010,05,17,13,10,199.60
2010,05,17,13,11,196.70
2010,05,17,13,12,192.20
2010,05,17,13,13,188.30
2010,05,17,13,14,184.30
2010,05,17,13,15,180.30
2010,05,17,13,16,178.20
2010,05,17,13,17,176.00
2010,05,17,13,18,176.00
2010,05,17,13,19,176.00
2010,05,17,13,20,176.00
2010,05,17,13,21,177.40
2010,05,17,13,22,178.00
2010,05,17,13,23,178.00
2010,05,17,13,24,177.50
2010,05,17,13,25,175.20
2010,05,17,13,26,172.80
2010,05,17,13,27,172.00
2010,05,17,13,28,173.80
2010,05,17,13,29,176.30
2010,05,17,13,30,178.90
2010,05,17,13,31,182.90
2010,05,17,13,32,185.00
2010,05,17,13,33,187.20
2010,05,17,13,34,183.30
2010,05,17,13,35,178.40
2010,05,17,13,36,174.20
2010,05,17,13,37,169.00
2010,05,17,13,38,164.40
2010,05,17,13,39,162.20
2010,05,17,13,40,160.10
2010,05,17,13,41,160.40
2010,05,17,13,42,163.10
2010,05,17,13,43,168.20
2010,05,17,13,44,176.50
2010,05,17,13,45,188.30
2010,05,17,13,46,202.80
2010,05,17,13,47,219.40
2010,05,17,13,48,236.90
2010,05,17,13,49,254.40
2010,05,17,13,50,264.10
2010,05,17,13,51,265.00
2010,05,17,13,52,267.80
2010,05,17,13,53,273.60
2010,05,17,13,54,280.90
2010,05,17,13,55,289.10
2010,05,17,13,56,298.70
2010,05,17,13,57,312.90
2010,05,17,13,58,328.90
2010,05,17,13,59,350.50
2010,05,17,14,00,378.00
2010,05,17,14,01,411.10
2010,05,17,14,02,462.60
2010,05,17,14,03,494.30
2010,05,17,14,04,528.80
2010,05,17,14,05,545.00
2010,05,17,14,06,554.50
2010,05,17,14,07,600.80
2010,05,17,14,08,594.50
2010,05,17,14,09,533.00
2010,05,17,14,10,519.60
2010,05,17,14,11,472.10
2010,05,17,14,12,446.00
2010,05,17,14,13,427.20
2010,05,17,14,14,414.90
2010,05,17,14,15,404.20
2010,05,17,14,16,399.00
2010,05,17,14,17,401.20
2010,05,17,14,18,411.50
2010,05,17,14,19,425.80
2010,05,17,14,20,440.50
2010,05,17,14,21,457.80
2010,05,17,14,22,504.00
2010,05,17,14,23,535.80
2010,05,17,14,24,503.00
2010,05,17,14,25,503.00
2010,05,17,14,26,411.20
2010,05,17,14,27,378.90
2010,05,17,14,28,387.20
2010,05,17,14,29,393.20
2010,05,17,14,30,416.20
2010,05,17,14,31,427.00
2010,05,17,14,32,427.00
2010,05,17,14,33,444.00
2010,05,17,14,34,438.70
2010,05,17,14,35,444.80
2010,05,17,14,36,470.80
2010,05,17,14,37,525.30
2010,05,17,14,38,604.80
2010,05,17,14,39,695.20
2010,05,17,14,40,654.00
2010,05,17,14,41,774.40
2010,05,17,14,42,940.00
2010,05,17,14,43,580.90
2010,05,17,14,44,439.50
2010,05,17,14,45,523.90
2010,05,17,14,46,497.00
2010,05,17,14,47,437.10
2010,05,17,14,48,365.20
2010,05,17,14,49,366.00
2010,05,17,14,50,304.80
2010,05,17,14,51,270.80
2010,05,17,14,52,253.80
2010,05,17,14,53,241.70
2010,05,17,14,54,235.10
2010,05,17,14,55,232.40
2010,05,17,14,56,230.20
2010,05,17,14,57,229.80
2010,05,17,14,58,226.90
2010,05,17,14,59,219.70
2010,05,17,15,00,212.80
2010,05,17,15,01,207.10
2010,05,17,15,02,202.10
2010,05,17,15,03,198.50
2010,05,17,15,04,195.50
2010,05,17,15,05,190.40
2010,05,17,15,06,184.80
2010,05,17,15,07,177.50
2010,05,17,15,08,170.90
2010,05,17,15,09,166.60
2010,05,17,15,10,165.80
2010,05,17,15,11,168.10
2010,05,17,15,12,170.40
2010,05,17,15,13,173.50
2010,05,17,15,14,179.60
2010,05,17,15,15,186.20
2010,05,17,15,16,191.20
2010,05,17,15,17,194.10
2010,05,17,15,18,193.70
2010,05,17,15,19,190.40
2010,05,17,15,20,185.80
2010,05,17,15,21,184.50
2010,05,17,15,22,183.00
2010,05,17,15,23,184.10
2010,05,17,15,24,185.00
2010,05,17,15,25,181.40
2010,05,17,15,26,175.40
2010,05,17,15,27,171.10
2010,05,17,15,28,168.20
2010,05,17,15,29,165.80
2010,05,17,15,30,163.50
2010,05,17,15,31,162.10
2010,05,17,15,32,162.20
2010,05,17,15,33,164.30
2010,05,17,15,34,169.50
2010,05,17,15,35,176.40
2010,05,17,15,36,184.50
2010,05,17,15,37,194.40
2010,05,17,15,38,203.00
2010,05,17,15,39,207.60
2010,05,17,15,40,208.10
2010,05,17,15,41,205.10
2010,05,17,15,42,200.80
2010,05,17,15,43,197.30
2010,05,17,15,44,199.60
2010,05,17,15,45,204.60
2010,05,17,15,46,212.70
2010,05,17,15,47,221.70
2010,05,17,15,48,234.00
2010,05,17,15,49,251.40
2010,05,17,15,50,264.10
2010,05,17,15,51,274.20
2010,05,17,15,52,282.50
2010,05,17,15,53,297.30
2010,05,17,15,54,319.70
2010,05,17,15,55,303.50
2010,05,17,15,56,304.70
2010,05,17,15,57,298.50
2010,05,17,15,58,292.10
2010,05,17,15,59,284.80
2010,05,17,16,00,275.40
2010,05,17,16,01,262.30
2010,05,17,16,02,251.70
2010,05,17,16,03,246.00
2010,05,17,16,04,239.70
2010,05,17,16,05,233.30
2010,05,17,16,06,230.20
2010,05,17,16,07,229.00
2010,05,17,16,08,229.30
2010,05,17,16,09,230.00
2010,05,17,16,10,230.00
2010,05,17,16,11,227.80
2010,05,17,16,12,221.60
2010,05,17,16,13,211.60
2010,05,17,16,14,201.20
2010,05,17,16,15,192.60
2010,05,17,16,16,187.50
2010,05,17,16,17,183.80
2010,05,17,16,18,178.90
2010,05,17,16,19,173.50
2010,05,17,16,20,170.40
2010,05,17,16,21,169.00
2010,05,17,16,22,169.00
2010,05,17,16,23,170.50
2010,05,17,16,24,172.10
2010,05,17,16,25,174.80
2010,05,17,16,26,179.10
2010,05,17,16,27,183.60
2010,05,17,16,28,187.30
2010,05,17,16,29,186.30
2010,05,17,16,30,185.90
2010,05,17,16,31,185.00
2010,05,17,16,32,185.00
2010,05,17,16,33,185.00
2010,05,17,16,34,185.00
2010,05,17,16,35,185.00
2010,05,17,16,36,188.50
2010,05,17,16,37,195.40
2010,05,17,16,38,204.80
2010,05,17,16,39,213.10
2010,05,17,16,40,222.20
2010,05,17,16,41,229.20
2010,05,17,16,42,236.80
2010,05,17,16,43,241.60
2010,05,17,16,44,240.10
2010,05,17,16,45,228.50
2010,05,17,16,46,211.20
2010,05,17,16,47,193.60
2010,05,17,16,48,177.40
2010,05,17,16,49,168.20
2010,05,17,16,50,158.70
2010,05,17,16,51,151.20
2010,05,17,16,52,146.80
2010,05,17,16,53,144.20
2010,05,17,16,54,143.70
2010,05,17,16,55,140.90
2010,05,17,16,56,137.10
2010,05,17,16,57,131.80
2010,05,17,16,58,124.50
2010,05,17,16,59,118.20
2010,05,17,17,00,115.40
2010,05,17,17,01,112.30
2010,05,17,17,02,109.90
2010,05,17,17,03,106.50
2010,05,17,17,04,104.20
2010,05,17,17,05,102.00
2010,05,17,17,06,99.60
2010,05,17,17,07,98.00
2010,05,17,17,08,98.00